User: anonymous   Login
Location: Mount Tamalpais State Park
(37.9108°N, 122.6128°W)
Time: 22:36:33
(UTC-07:00)
Language:

Cosmos 1814 Rocket - Orbit

View from above orbital plane
View from above orbital plane
View from above satellite
View from above satellite

Ground track
Ground track

The orbit data is extracted from the following two-line orbital elements,

1 17304U 87006B   14302.85290744  .00000273  00000-0  99473-4 0  2660
2 17304 074.0615 057.3967 0028886 138.1558 007.3790 14.37371589455165
Epoch (UTC): 29 October 2014 20:28:11
Eccentricity: 0.0028886
inclination: 74.0615°
perigee height: 746 km
apogee height: 788 km
right ascension of ascending node: 57.3967°
argument of perigee: 138.1558°
revolutions per day: 14.37371589
mean anomaly at epoch: 7.3790°
orbit number at epoch: 45516

The dashed part of the orbit path shows where the satellite is in the earth's shadow,  

DLR